User: anonymous   Login
Location: Vale
(35.4830°N, 81.3830°W)
Time: 12:13:21
(UTC-04:00)
Language:

Cosmos 2237 Rocket - Orbit

View from above orbital plane
View from above orbital plane
View from above satellite
View from above satellite

Ground track
Ground track

The orbit data is extracted from the following two-line orbital elements,

1 22566U 93016B   15212.53646938 -.00000209  00000-0 -83439-4 0  9999
2 22566 071.0078 068.1941 0007986 099.6033 260.5993 14.14908791154148
Epoch (UTC): 31 July 2015 12:52:30
Eccentricity: 0.0007986
inclination: 71.0078°
perigee height: 837 km
apogee height: 848 km
right ascension of ascending node: 68.1941°
argument of perigee: 99.6033°
revolutions per day: 14.14908791
mean anomaly at epoch: 260.5993°
orbit number at epoch: 15414

The dashed part of the orbit path shows where the satellite is in the earth's shadow,  

DLR